[[[{"header":{"parameterUnit":"kt","parameterCategory":2,"dx":1,"dy":1,"la1":30.253999710083008,"la2":30.299108505249023,"lo1":-89.0895004272461,"lo2":-89.04439544677734,"nx":28,"ny":28,"refTime":"2022-09-22T21:00:00:Z","depth":0,"parameterNumber":1,"parameterNumberName":"U-component_of_WINDS"},"data":[5.9158,5.9358,5.941,5.9664,5.9754,5.9937,6.002,6.0133,6.0237,6.0465,6.0606,6.0683,6.0811,6.0995,6.1153,6.1185,6.1248,6.1279,6.1311,6.1118,6.1095,6.1073,6.1027,6.1292,6.1293,6.1503,6.1505,6.1506,5.9012,5.9102,5.9251,5.9431,5.956,5.9561,5.9706,5.9815,5.998,6.011,6.0252,6.0458,6.0629,6.075,6.0925,6.1023,6.1035,6.1067,6.106,6.1081,6.0877,6.0828,6.1054,6.1054,6.1054,6.1054,6.1054,6.1054,5.8758,5.8876,5.9015,5.9178,5.9283,5.9405,5.9528,5.9617,5.9766,5.9952,5.9989,6.0178,6.0322,6.056,6.0655,6.0806,6.0782,6.0834,6.0848,6.086,6.0865,6.0553,6.0839,6.0839,6.0838,6.0838,6.0838,0,5.8589,5.8624,5.8771,5.8934,5.9056,5.9188,5.9319,5.9397,5.9494,5.9614,5.9792,5.9905,6.0128,6.0304,6.0481,6.057,6.0587,6.0595,6.0632,6.0615,6.0578,6.06,6.0264,6.0586,6.0585,6.0583,6.0582,6.0581,5.8337,5.8468,5.864,5.8736,5.882,5.8975,5.9079,5.9155,5.9262,5.9436,5.9539,5.9716,5.9861,6.0142,6.0249,6.0418,6.0428,6.0545,6.0454,6.0433,6.0431,6.0421,6.0435,6.0561,6.0564,6.0566,6.0567,0,5.819,5.8275,5.8496,5.8654,5.8698,5.8833,5.897,5.9093,5.9168,5.9348,5.9395,5.9513,5.9689,5.9778,5.9999,6.0041,6.027,6.0275,6.022,6.0226,6.0339,6.0327,6.0694,6.0746,6.0472,6.0475,6.0477,0,5.8008,5.8179,5.8296,5.842,5.8613,5.8683,5.8873,5.8956,5.9079,5.9222,5.9252,5.9386,5.948,5.9628,5.969,5.9893,5.9935,5.9979,5.9993,5.9976,5.997,6.0036,6.0022,6.0021,6.0019,6.0017,6.0016,0,5.7768,5.8032,5.8234,5.8308,5.8494,5.8589,5.8671,5.8809,5.8912,5.9059,5.9126,5.9294,5.9386,5.9517,5.9594,5.9528,5.9845,5.9771,5.989,5.9888,5.9955,5.995,6.0252,6.0013,6.0013,6.0012,6.0012,0,5.7634,5.7778,5.8058,5.8213,5.828,5.8415,5.8581,5.8717,5.8861,5.8907,5.9025,5.9056,5.924,5.9161,5.9417,5.9309,5.94,5.9459,5.9469,5.9491,5.9399,5.9556,5.9835,5.9867,5.9511,5.9507,5.9503,0,5.7336,5.7642,5.7703,5.7969,5.8122,5.8144,5.8296,5.8421,5.8496,5.8639,5.8722,5.8886,5.8845,5.8909,5.9024,5.9117,5.9257,5.9102,5.9311,5.9318,5.927,5.9528,5.9546,5.9764,5.9451,5.9457,5.9461,0,5.7116,5.7338,5.7381,5.7469,5.7644,5.7773,5.7947,5.8123,5.8214,5.8354,5.8502,5.8735,5.8714,5.8819,5.8863,5.8979,5.9165,5.8941,5.8946,5.8978,5.9432,5.9449,5.9485,5.917,5.9176,5.9181,5.9419,0,5.6893,5.7057,5.7177,5.7368,5.7481,5.7652,5.7743,5.7851,5.7879,5.7953,5.8174,5.8303,5.8486,5.8551,5.8581,5.8816,5.8791,5.8767,5.8696,5.8864,5.8945,5.8978,5.8568,5.8566,5.8565,5.8564,0,0,5.6586,5.6822,5.6884,5.7054,5.7153,5.7173,5.7348,5.7448,5.765,5.7719,5.768,5.8026,5.8134,5.8393,5.8452,5.8527,5.8578,5.8516,5.8783,5.8807,5.883,5.8915,5.8947,5.8562,5.8561,5.8561,5.856,0,5.6523,5.6626,5.6797,5.6902,5.7059,5.7128,5.7169,5.733,5.7386,5.7602,5.7618,5.7762,5.8038,5.8149,5.8241,5.8486,5.8492,5.8536,5.8636,5.8767,5.8793,5.8816,5.8904,5.8934,5.8557,5.8557,5.8557,0,5.6321,5.6437,5.6529,5.6754,5.6858,5.7016,5.6962,5.7131,5.725,5.7267,5.7481,5.7566,5.7723,5.7956,5.8064,5.8032,5.8407,5.8306,5.8317,5.8331,5.8463,5.8494,5.8521,5.8159,5.8157,5.8156,0,0,5.6254,5.6406,5.6555,5.6747,5.6811,5.6916,5.7009,5.7047,5.7185,5.724,5.7348,5.7484,5.7645,5.775,5.7906,5.8149,5.8188,5.8253,5.8272,5.8287,5.8309,5.8444,5.8475,5.8149,5.8149,5.8149,0,0,5.6223,5.6401,5.6404,5.6638,5.6767,5.6928,5.7043,5.7052,5.7201,5.7191,5.7267,5.7307,5.7526,5.761,5.7508,5.7883,5.781,5.7837,5.782,5.7845,5.7863,5.7839,5.7473,0,0,0,0,0,5.6203,5.6378,5.638,5.6432,5.6718,5.6927,5.6964,5.7028,5.6974,5.7064,5.7156,5.7155,5.757,5.7482,5.7535,5.7647,5.8062,5.8077,5.8092,5.8128,5.8153,5.8174,0,0,0,0,0,0,5.6224,5.6288,5.6375,5.6542,5.6607,5.6921,5.6844,5.6867,5.6966,5.6962,5.7137,5.7161,5.7221,5.746,5.7506,5.7612,5.7458,5.8068,5.8081,5.8093,5.8137,5.8157,5.8175,0,0,0,0,0,5.6241,5.6293,5.6734,5.654,5.6597,5.6723,5.6838,5.6856,5.6935,5.7078,5.7101,5.6974,5.7222,5.7266,5.7488,5.7589,5.7426,5.7443,5.8077,5.8087,5.8096,5.8147,0,0,0,0,0,0,5.6254,5.6312,5.6747,5.6766,5.6478,5.6707,5.6744,5.6847,5.7045,5.7069,5.6917,5.6912,5.7226,5.7259,5.7293,5.7577,5.74,5.7417,5.7428,5.8084,5.8092,5.81,0,0,0,0,0,0,5.6285,5.6329,5.6757,5.6675,5.6686,5.6692,5.6725,5.6923,5.7047,5.6873,5.6875,5.6912,5.7176,5.7255,5.7281,5.7588,5.738,5.7397,5.7408,5.7416,5.8091,5.8097,0,0,0,0,0,0,5.6305,5.6342,5.667,5.6678,5.6688,5.6914,5.6868,5.7159,5.6972,5.6864,5.6958,5.6951,5.7173,5.72,5.7273,5.7569,5.7583,5.738,5.7392,5.74,5.7405,0,0,0,0,0,0,0,5.6321,5.6053,5.6629,5.6681,5.6689,5.6948,5.6954,5.6959,5.6971,5.6965,5.6959,5.6954,5.7285,5.7303,5.7321,5.7553,0,0,5.7379,5.7387,0,0,0,0,0,0,0,0,5.6039,5.6049,5.663,5.6634,5.6638,5.6949,5.6954,5.6958,5.697,5.6965,5.6961,5.6956,5.729,5.7304,5.7319,0,0,0,0,0,0,0,0,0,0,0,0,0,0,0,5.6631,5.6634,0,5.695,5.6954,5.6957,5.6969,5.6966,5.6962,5.6958,5.7294,5.7306,5.7318,0,0,0,0,0,0,0,0,0,0,0,0,0,0,0,0,0,0,0,0,0,0,0,0,0,0,0,0,0,0,0,0,0,0,0,0,0,0,0,0,0,0,0,0,0,0,0,0,0,0,0,0,0,0,0,0,0,0,0,0,0,0,0,0,0,0,0,0,0]}],[{"header":{"parameterUnit":"kt","parameterCategory":2,"dx":1,"dy":1,"la1":30.253999710083008,"la2":30.299108505249023,"lo1":-89.0895004272461,"lo2":-89.04439544677734,"nx":28,"ny":28,"refTime":"2022-09-22T21:00:00:Z","depth":0,"parameterNumber":2,"parameterNumberName":"V-component_of_WINDS"},"data":[3.7373,3.7441,3.7436,3.7511,3.7519,3.7568,3.7584,3.7603,3.7616,3.7673,3.7704,3.7704,3.7713,3.7747,3.7778,3.7777,3.7791,3.782,3.7813,3.7691,3.7674,3.7657,3.7641,3.7823,3.7823,3.794,3.7941,3.7942,3.7285,3.7294,3.7332,3.7365,3.7398,3.7367,3.739,3.7418,3.7462,3.7479,3.7509,3.7557,3.7594,3.7592,3.7626,3.7656,3.7642,3.7665,3.7663,3.7665,3.7534,3.7518,3.7676,3.7676,3.7676,3.7676,3.7676,3.7676,3.7124,3.7165,3.7182,3.7223,3.7238,3.7259,3.7297,3.7296,3.7331,3.7367,3.7352,3.7401,3.7414,3.745,3.746,3.7497,3.7469,3.7492,3.7497,3.7503,3.7512,3.7345,3.7502,3.7501,3.7501,3.75,3.75,0,3.7004,3.6997,3.7033,3.7067,3.7096,3.7122,3.7144,3.7166,3.7146,3.7176,3.7218,3.7241,3.7285,3.7323,3.7352,3.7357,3.7325,3.7321,3.7337,3.7346,3.7351,3.7349,3.7137,3.7316,3.7315,3.7314,3.7313,3.7312,3.6841,3.6889,3.6904,3.6929,3.694,3.6982,3.7005,3.6983,3.7008,3.703,3.7066,3.7104,3.7133,3.72,3.7195,3.7228,3.7212,3.7282,3.7217,3.7224,3.7214,3.7211,3.7216,3.7295,3.7297,3.7299,3.73,0,3.675,3.674,3.6812,3.6821,3.6824,3.6875,3.6881,3.692,3.6914,3.6966,3.6977,3.6967,3.7007,3.6991,3.7034,3.7024,3.7106,3.709,3.7101,3.7097,3.7158,3.7153,3.7358,3.7383,3.7194,3.7196,3.7198,0,3.6606,3.667,3.6651,3.6694,3.6764,3.674,3.681,3.6811,3.6823,3.6864,3.6826,3.6865,3.6838,3.6874,3.686,3.6923,3.6931,3.6927,3.6923,3.6931,3.6932,3.6943,3.6935,3.691,3.6909,3.6908,3.6907,0,3.6465,3.6529,3.6598,3.6611,3.6625,3.6658,3.6665,3.6677,3.67,3.6725,3.6739,3.6771,3.6788,3.6812,3.6793,3.675,3.687,3.6807,3.6866,3.6867,3.6894,3.6893,3.7078,3.6906,3.6906,3.6905,3.6905,0,3.6347,3.6376,3.6478,3.6489,3.6506,3.6551,3.6581,3.6616,3.6632,3.6626,3.6646,3.6618,3.6673,3.6611,3.6685,3.6634,3.6653,3.6654,3.6658,3.6661,3.6593,3.67,3.6878,3.6896,3.6665,3.6663,3.6661,0,3.6188,3.6287,3.6268,3.6365,3.6408,3.6364,3.6413,3.6428,3.6425,3.646,3.6455,3.6495,3.6445,3.6455,3.6494,3.649,3.6556,3.648,3.653,3.6532,3.6528,3.6691,3.6722,3.6841,3.6635,3.6638,3.664,0,3.6062,3.608,3.6099,3.6112,3.613,3.6166,3.6222,3.6257,3.6282,3.6302,3.6348,3.6403,3.6368,3.6385,3.6366,3.6407,3.6511,3.6363,3.6363,3.6391,3.6621,3.665,3.667,3.6488,3.6491,3.6494,3.662,0,3.5888,3.5936,3.5986,3.6016,3.6042,3.6101,3.6085,3.6113,3.6093,3.6088,3.6154,3.6161,3.6195,3.6213,3.6193,3.6293,3.6274,3.6235,3.6174,3.6281,3.6322,3.6339,3.6114,3.6112,3.6111,3.6109,0,0,3.5737,3.5806,3.5783,3.5838,3.5858,3.581,3.5875,3.5888,3.5917,3.5931,3.5896,3.5975,3.5982,3.6065,3.6097,3.6111,3.6127,3.609,3.623,3.6244,3.6256,3.63,3.6318,3.6106,3.6106,3.6105,3.6105,0,3.567,3.5682,3.5747,3.576,3.5779,3.577,3.5786,3.5796,3.5795,3.5861,3.5819,3.5857,3.5921,3.5933,3.5948,3.6079,3.6046,3.6091,3.6167,3.6214,3.623,3.6244,3.6291,3.6308,3.6101,3.6101,3.6101,0,3.5544,3.5553,3.5583,3.5626,3.5638,3.5683,3.5615,3.5666,3.5699,3.5643,3.5709,3.571,3.5726,3.5806,3.5841,3.581,3.5973,3.5918,3.5928,3.5931,3.5976,3.5995,3.6012,3.579,3.5789,3.5788,0,0,3.5488,3.5533,3.5534,3.5611,3.5621,3.5609,3.5631,3.5613,3.5629,3.5636,3.5637,3.5653,3.5689,3.5714,3.5747,3.5838,3.5838,3.5881,3.5895,3.5907,3.5917,3.5965,3.5984,3.5784,3.5784,3.5784,0,0,3.5461,3.5466,3.5443,3.553,3.5548,3.5553,3.5599,3.557,3.5599,3.559,3.556,3.5563,3.5638,3.564,3.5592,3.5725,3.5664,3.5675,3.572,3.5739,3.5753,3.5751,3.5522,0,0,0,0,0,3.5384,3.5466,3.5445,3.5457,3.5511,3.5564,3.5571,3.5549,3.5507,3.5545,3.5541,3.5503,3.5608,3.5564,3.5576,3.563,3.5735,3.5744,3.5752,3.5831,3.585,3.5867,0,0,0,0,0,0,3.5389,3.5404,3.5442,3.5451,3.5463,3.5561,3.5485,3.5481,3.5503,3.5495,3.5505,3.5503,3.5485,3.5557,3.5567,3.562,3.5518,3.5738,3.5746,3.5752,3.5838,3.5854,3.5867,0,0,0,0,0,3.5393,3.5405,3.5498,3.545,3.546,3.5451,3.5482,3.5478,3.5494,3.5488,3.5485,3.5476,3.5487,3.5494,3.5563,3.5615,3.551,3.5514,3.5743,3.5749,3.5754,3.5846,0,0,0,0,0,0,3.5395,3.5401,3.5499,3.5501,3.5418,3.5445,3.5448,3.5476,3.5486,3.5484,3.5457,3.5451,3.5489,3.5495,3.5501,3.5615,3.5504,3.5508,3.5511,3.5748,3.5752,3.5756,0,0,0,0,0,0,3.5394,3.5403,3.55,3.5461,3.5459,3.544,3.5443,3.5497,3.5486,3.5454,3.5449,3.5454,3.5479,3.5495,3.55,3.5586,3.5499,3.5503,3.5506,3.5508,3.5751,3.5755,0,0,0,0,0,0,3.5398,3.5405,3.546,3.5459,3.5456,3.548,3.5487,3.5543,3.5455,3.5454,3.5446,3.5442,3.5481,3.5485,3.55,3.5584,3.5585,3.5499,3.5502,3.5504,3.5505,0,0,0,0,0,0,0,3.54,3.5354,3.5486,3.5456,3.5454,3.5522,3.5523,3.5524,3.5454,3.545,3.5447,3.5444,3.5476,3.5481,3.5485,3.5583,0,0,3.5499,3.5501,0,0,0,0,0,0,0,0,3.535,3.5353,3.5486,3.5487,3.5487,3.5523,3.5523,3.5523,3.5453,3.545,3.5448,3.5445,3.5477,3.5481,3.5485,0,0,0,0,0,0,0,0,0,0,0,0,0,0,0,3.5486,3.5487,0,3.5523,3.5523,3.5523,3.5453,3.5451,3.5448,3.5446,3.5478,3.5481,3.5484,0,0,0,0,0,0,0,0,0,0,0,0,0,0,0,0,0,0,0,0,0,0,0,0,0,0,0,0,0,0,0,0,0,0,0,0,0,0,0,0,0,0,0,0,0,0,0,0,0,0,0,0,0,0,0,0,0,0,0,0,0,0,0,0,0,0,0,0,0]}]]]